| time (UTC) | temp F | wind direction | speed MPH | gust MPH | rain 1hr in | rain 24hr in | rain mn in | humidity % | barometer mb |
| 20260506033516 | 23 | 68 | 1.0 | 3.0 | 0.00 | 0.12 | 0.09 | 94 | 1012.9 |
| 20260506032536 | 23 | 45 | 1.0 | 2.0 | 0.00 | 0.12 | 0.09 | 94 | 1013.0 |
| 20260506031516 | 23 | 68 | 1.0 | 3.0 | 0.00 | 0.12 | 0.09 | 94 | 1012.7 |
| 20260506030516 | 23 | 0.0 | 3.0 | 0.00 | 0.12 | 0.09 | 94 | 1012.5 | |
| 20260506025536 | 23 | 45 | 3.0 | 4.0 | 0.00 | 0.28 | 0.09 | 94 | 1012.3 |
| 20260506024536 | 23 | 68 | 2.0 | 4.0 | 0.00 | 0.28 | 0.09 | 94 | 1012.2 |
| 20260506023516 | 23 | 68 | 2.0 | 5.0 | 0.00 | 0.28 | 0.09 | 94 | 1011.9 |
| 20260506022519 | 23 | 68 | 1.0 | 4.0 | 0.00 | 0.28 | 0.09 | 94 | 1011.9 |
| 20260506021519 | 24 | 68 | 1.0 | 4.0 | 0.00 | 0.28 | 0.09 | 94 | 1011.6 |
| 20260506020519 | 23 | 45 | 1.0 | 5.0 | 0.00 | 0.28 | 0.09 | 94 | 1011.5 |
| 20260506015521 | 24 | 45 | 2.0 | 7.0 | 0.00 | 0.32 | 0.09 | 94 | 1011.4 |
| 20260506014516 | 24 | 45 | 3.0 | 5.0 | 0.00 | 0.32 | 0.09 | 93 | 1011.2 |
| 20260506013516 | 24 | 45 | 3.0 | 5.0 | 0.00 | 0.32 | 0.09 | 94 | 1011.2 |
| 20260506012516 | 24 | 45 | 1.0 | 4.0 | 0.00 | 0.32 | 0.09 | 94 | 1011.0 |
| 20260506011516 | 24 | 45 | 1.0 | 3.0 | 0.00 | 0.32 | 0.09 | 93 | 1010.9 |
| 20260506010516 | 24 | 0.0 | 1.0 | 0.00 | 0.32 | 0.09 | 93 | 1011.1 | |
| 20260506005556 | 25 | 45 | 2.0 | 3.0 | 0.00 | 0.32 | 0.09 | 93 | 1010.9 |
| 20260506004519 | 25 | 68 | 1.0 | 4.0 | 0.00 | 0.32 | 0.09 | 94 | 1010.9 |
| 20260506003519 | 25 | 68 | 1.0 | 4.0 | 0.00 | 0.32 | 0.09 | 94 | 1010.9 |
| 20260506002516 | 25 | 68 | 1.0 | 3.0 | 0.00 | 0.32 | 0.09 | 94 | 1011.1 |
| 20260506001516 | 25 | 45 | 1.0 | 3.0 | 0.01 | 0.32 | 0.09 | 94 | 1011.1 |
| 20260506000519 | 24 | 45 | 5.0 | 10.0 | 0.01 | 0.32 | 0.09 | 93 | 1010.8 |
| 20260505235536 | 25 | 68 | 3.0 | 9.0 | 0.01 | 0.32 | 0.09 | 93 | 1010.7 |
| 20260505234516 | 24 | 68 | 5.0 | 9.0 | 0.01 | 0.32 | 0.09 | 93 | 1010.7 |
| 20260505233519 | 25 | 45 | 5.0 | 10.0 | 0.01 | 0.32 | 0.09 | 93 | 1010.8 |
| 20260505232519 | 25 | 68 | 2.0 | 8.0 | 0.01 | 0.32 | 0.09 | 94 | 1010.9 |
| 20260505231539 | 25 | 68 | 4.0 | 8.0 | 0.00 | 0.31 | 0.08 | 93 | 1010.6 |
| 20260505230519 | 25 | 45 | 6.0 | 11.0 | 0.00 | 0.31 | 0.08 | 93 | 1010.5 |
| 20260505225516 | 25 | 45 | 4.0 | 8.0 | 0.00 | 0.32 | 0.08 | 93 | 1010.8 |
| 20260505224536 | 25 | 68 | 2.0 | 3.0 | 0.00 | 0.32 | 0.08 | 94 | 1010.9 |
| 20260505223516 | 25 | 68 | 3.0 | 5.0 | 0.00 | 0.32 | 0.08 | 93 | 1010.8 |
| 20260505222516 | 25 | 45 | 3.0 | 5.0 | 0.01 | 0.32 | 0.08 | 93 | 1011.0 |
| 20260505221516 | 25 | 45 | 6.0 | 10.0 | 0.01 | 0.32 | 0.08 | 93 | 1010.5 |
| 20260505220516 | 27 | 68 | 5.0 | 12.0 | 0.02 | 0.32 | 0.08 | 93 | 1010.1 |
| 20260505215516 | 27 | 45 | 4.0 | 11.0 | 0.03 | 0.32 | 0.08 | 93 | 1010.9 |
| 20260505214516 | 28 | 45 | 5.0 | 14.0 | 0.05 | 0.32 | 0.08 | 93 | 1010.6 |
| 20260505213516 | 29 | 23 | 4.0 | 10.0 | 0.06 | 0.32 | 0.08 | 93 | 1010.7 |
| 20260505212516 | 29 | 68 | 3.0 | 9.0 | 0.05 | 0.31 | 0.07 | 93 | 1010.5 |
| 20260505211515 | 29 | 45 | 5.0 | 12.0 | 0.04 | 0.30 | 0.07 | 92 | 1010.8 |
| 20260505210539 | 29 | 23 | 4.0 | 11.0 | 0.04 | 0.30 | 0.06 | 93 | 1010.9 |
| 20260505205519 | 30 | 23 | 5.0 | 11.0 | 0.04 | 0.29 | 0.05 | 91 | 1011.2 |
| 20260505204519 | 31 | 45 | 5.0 | 11.0 | 0.02 | 0.27 | 0.03 | 90 | 1011.3 |
| 20260505203519 | 32 | 45 | 4.0 | 10.0 | 0.01 | 0.26 | 0.02 | 92 | 1011.6 |
| 20260505202516 | 31 | 68 | 3.0 | 7.0 | 0.01 | 0.26 | 0.02 | 93 | 1011.7 |
| 20260505201536 | 30 | 68 | 2.0 | 5.0 | 0.01 | 0.26 | 0.02 | 94 | 1011.6 |
| 20260505200516 | 29 | 68 | 1.0 | 3.0 | 0.01 | 0.26 | 0.02 | 94 | 1011.6 |
| 20260505195516 | 28 | 338 | 3.0 | 5.0 | 0.00 | 0.25 | 0.01 | 94 | 1011.7 |
| 20260505194519 | 28 | 0 | 2.0 | 6.0 | 0.00 | 0.25 | 0.01 | 94 | 1011.4 |
| 20260505193539 | 28 | 45 | 2.0 | 5.0 | 0.00 | 0.25 | 0.01 | 94 | 1011.3 |
| 20260505192516 | 28 | 23 | 6.0 | 10.0 | 0.00 | 0.25 | 0.01 | 93 | 1011.3 |
| 20260505191516 | 28 | 0 | 3.0 | 5.0 | 0.00 | 0.25 | 0.01 | 93 | 1011.4 |
| 20260505190519 | 28 | 45 | 3.0 | 6.0 | 0.00 | 0.25 | 0.01 | 93 | 1011.0 |
| 20260505185519 | 29 | 68 | 2.0 | 5.0 | 0.00 | 0.25 | 0.01 | 93 | 1011.3 |
| 20260505184516 | 28 | 45 | 3.0 | 5.0 | 0.00 | 0.25 | 0.01 | 93 | 1011.1 |
| 20260505183539 | 28 | 45 | 2.0 | 6.0 | 0.00 | 0.25 | 0.01 | 94 | 1011.2 |
| 20260505182519 | 28 | 90 | 3.0 | 8.0 | 0.00 | 0.25 | 0.01 | 93 | 1011.4 |
| 20260505181539 | 28 | 45 | 4.0 | 7.0 | 0.00 | 0.25 | 0.01 | 93 | 1011.4 |
| 20260505180539 | 28 | 338 | 5.0 | 8.0 | 0.00 | 0.25 | 0.01 | 93 | 1011.6 |
| 20260505175519 | 29 | 23 | 3.0 | 6.0 | 0.00 | 0.25 | 0.01 | 93 | 1011.5 |
| 20260505174515 | 28 | 45 | 5.0 | 7.0 | 0.00 | 0.25 | 0.01 | 93 | 1011.3 |
| 20260505173515 | 28 | 45 | 4.0 | 8.0 | 0.00 | 0.25 | 0.01 | 93 | 1011.6 |
| 20260505172516 | 28 | 45 | 3.0 | 5.0 | 0.00 | 0.25 | 0.01 | 93 | 1011.6 |
| 20260505171535 | 28 | 45 | 1.0 | 3.0 | 0.00 | 0.25 | 0.01 | 94 | 1011.7 |
| 20260505170515 | 28 | 23 | 3.0 | 8.0 | 0.00 | 0.25 | 0.01 | 93 | 1011.7 |
| 20260505165539 | 28 | 45 | 4.0 | 6.0 | 0.00 | 0.25 | 0.01 | 93 | 1011.6 |
| 20260505164515 | 28 | 45 | 3.0 | 6.0 | 0.00 | 0.25 | 0.01 | 94 | 1011.6 |
| 20260505163559 | 28 | 45 | 4.0 | 6.0 | 0.00 | 0.25 | 0.01 | 93 | 1011.6 |
| 20260505162519 | 28 | 45 | 3.0 | 8.0 | 0.00 | 0.25 | 0.01 | 93 | 1011.6 |
| 20260505161519 | 28 | 23 | 3.0 | 7.0 | 0.00 | 0.25 | 0.01 | 94 | 1011.6 |
| 20260505160519 | 28 | 23 | 3.0 | 5.0 | 0.00 | 0.25 | 0.01 | 94 | 1011.7 |
| 20260505152535 | 28 | 45 | 3.0 | 6.0 | 0.00 | 0.25 | 0.01 | 93 | 1011.7 |
| 20260505151515 | 28 | 45 | 1.0 | 3.0 | 0.00 | 0.25 | 0.01 | 94 | 1011.8 |
| 20260505150515 | 28 | 45 | 2.0 | 5.0 | 0.00 | 0.25 | 0.01 | 94 | 1011.7 |
| 20260505140515 | 27 | 45 | 2.0 | 8.0 | 0.00 | 0.25 | 0.01 | 94 | 1012.0 |
| 20260505124515 | 28 | 45 | 5.0 | 6.0 | 0.00 | 0.25 | 0.01 | 95 | 1012.0 |
| 20260505123515 | 28 | 45 | 3.0 | 7.0 | 0.00 | 0.25 | 0.01 | 95 | 1012.1 |
| 20260505122515 | 28 | 68 | 4.0 | 9.0 | 0.00 | 0.25 | 0.01 | 94 | 1012.0 |
| 20260505121518 | 29 | 68 | 3.0 | 7.0 | 0.00 | 0.25 | 0.01 | 95 | 1012.1 |
| 20260505120518 | 29 | 68 | 2.0 | 4.0 | 0.00 | 0.25 | 0.01 | 95 | 1012.2 |
| 20260505115539 | 29 | 45 | 1.0 | 4.0 | 0.00 | 0.25 | 0.01 | 95 | 1011.8 |
| 20260505114518 | 29 | 68 | 1.0 | 4.0 | 0.00 | 0.25 | 0.01 | 95 | 1011.6 |
| 20260505113519 | 29 | 45 | 2.0 | 3.0 | 0.00 | 0.25 | 0.01 | 95 | 1011.6 |
| 20260505112519 | 29 | 68 | 2.0 | 5.0 | 0.00 | 0.25 | 0.01 | 95 | 1011.6 |
| 20260505111519 | 29 | 68 | 1.0 | 6.0 | 0.00 | 0.25 | 0.01 | 95 | 1011.5 |
| 20260505110518 | 30 | 338 | 2.0 | 5.0 | 0.00 | 0.25 | 0.01 | 95 | 1011.6 |
| 20260505101518 | 31 | 45 | 3.0 | 8.0 | 0.00 | 0.25 | 0.01 | 95 | 1011.8 |
| 20260505100519 | 31 | 45 | 3.0 | 10.0 | 0.01 | 0.25 | 0.01 | 94 | 1011.8 |
| 20260505095555 | 31 | 68 | 5.0 | 10.0 | 0.01 | 0.25 | 0.01 | 94 | 1012.0 |
| 20260505094515 | 32 | 68 | 4.0 | 7.0 | 0.01 | 0.25 | 0.01 | 94 | 1012.0 |
| 20260505093515 | 32 | 45 | 5.0 | 12.0 | 0.01 | 0.25 | 0.01 | 94 | 1011.9 |
| 20260505092535 | 33 | 45 | 3.0 | 8.0 | 0.01 | 0.25 | 0.01 | 94 | 1012.9 |
| 20260505091535 | 33 | 68 | 3.0 | 6.0 | 0.01 | 0.25 | 0.01 | 94 | 1013.0 |
| 20260505090535 | 34 | 68 | 3.0 | 9.0 | 0.00 | 0.24 | 0.00 | 94 | 1013.0 |
| 20260505085515 | 35 | 45 | 3.0 | 5.0 | 0.00 | 0.24 | 0.00 | 94 | 1012.9 |
| 20260505084515 | 35 | 45 | 2.0 | 4.0 | 0.00 | 0.24 | 0.00 | 94 | 1013.0 |
| 20260505083515 | 35 | 0.0 | 2.0 | 0.00 | 0.24 | 0.00 | 94 | 1013.0 | |
| 20260505082518 | 35 | 225 | 1.0 | 2.0 | 0.00 | 0.24 | 0.00 | 94 | 1012.8 |
| 20260505081518 | 35 | 225 | 2.0 | 4.0 | 0.00 | 0.24 | 0.00 | 94 | 1012.9 |
| 20260505080518 | 35 | 225 | 2.0 | 3.0 | 0.00 | 0.24 | 0.00 | 93 | 1012.9 |
| 20260505075517 | 35 | 225 | 1.0 | 2.0 | 0.00 | 0.24 | 0.00 | 93 | 1012.7 |
| 20260505074517 | 35 | 225 | 2.0 | 3.0 | 0.00 | 0.24 | 0.00 | 93 | 1012.9 |
| 20260505073537 | 35 | 225 | 1.0 | 2.0 | 0.00 | 0.24 | 0.00 | 93 | 1013.0 |
| 20260505072517 | 35 | 293 | 1.0 | 1.0 | 0.00 | 0.24 | 0.00 | 92 | 1013.3 |
| 20260505071517 | 35 | 293 | 1.0 | 2.0 | 0.00 | 0.24 | 0.00 | 93 | 1013.3 |
| 20260505070516 | 35 | 293 | 1.0 | 2.0 | 0.00 | 0.24 | 0.00 | 93 | 1013.4 |
| 20260505065520 | 35 | 293 | 2.0 | 3.0 | 0.00 | 0.24 | 0.00 | 92 | 1013.4 |
| 20260505064520 | 35 | 0.0 | 2.0 | 0.00 | 0.24 | 0.00 | 92 | 1013.5 | |
| 20260505063520 | 35 | 0.0 | 2.0 | 0.00 | 0.24 | 0.00 | 92 | 1013.6 | |
| 20260505062520 | 35 | 45 | 1.0 | 1.0 | 0.00 | 0.24 | 0.00 | 91 | 1013.3 |
| 20260505061520 | 35 | 45 | 2.0 | 3.0 | 0.00 | 0.24 | 0.00 | 92 | 1013.1 |
| 20260505060520 | 35 | 270 | 1.0 | 2.0 | 0.00 | 0.24 | 0.00 | 91 | 1013.2 |
| 20260505055520 | 36 | 0.0 | 1.0 | 0.00 | 0.24 | 0.24 | 92 | 1013.1 | |
| 20260505054517 | 35 | 270 | 2.0 | 2.0 | 0.00 | 0.24 | 0.24 | 92 | 1013.1 |
| 20260505053516 | 34 | 270 | 3.0 | 6.0 | 0.00 | 0.24 | 0.24 | 93 | 1012.8 |
| 20260505052540 | 34 | 270 | 3.0 | 4.0 | 0.00 | 0.24 | 0.24 | 92 | 1012.6 |
| 20260505051520 | 35 | 248 | 1.0 | 2.0 | 0.00 | 0.24 | 0.24 | 92 | 1012.6 |
| 20260505050516 | 36 | 180 | 1.0 | 4.0 | 0.00 | 0.24 | 0.24 | 93 | 1012.4 |
| 20260505041516 | 34 | 270 | 2.0 | 4.0 | 0.01 | 0.24 | 0.24 | 93 | 1012.7 |
| 20260505040516 | 34 | 225 | 3.0 | 5.0 | 0.02 | 0.24 | 0.24 | 93 | 1012.9 |
| 20260505035517 | 34 | 225 | 4.0 | 6.0 | 0.04 | 0.24 | 0.24 | 93 | 1012.9 |
| 20260505034536 | 34 | 248 | 2.0 | 5.0 | 0.05 | 0.24 | 0.24 | 93 | 1012.8 |